Aérodrome :
LOGIN :

S'inscrire | Disclaimer

   EN    FR    IT 

 










Légende :    VFR   VFR Marginal   IFR   IFR Intensif   IFR Très Intensif
Visi : 
Plafond : 
>= 8 km
>= 3000ft
5 à 8 km
1000 à 3000 ft
1500m à 5 km
500 à 1000 ft
800 à 1500m
200 à 500 ft
< 800m
< 200 ft
Symboles :   Orages  Brouillard  Fortes neiges  Fortes précipitations  Vent > 20 kt
SIGMETs :   Divers  Orages  Givrage  Turbulence  Onde Orograph.  Cendres Volcan.







- Altitude de l'aérodrome : 778 ft
- Code IATA : BRQ


LKTB - Brno-Turany

DERNIER METAR :
  • 210330Z 31004KT CAVOK M06/M08 Q1021 NOSIG

METARs EXPIRÉS :
  • 210300Z 33003KT CAVOK M06/M08 Q1021 NOSIG
  • 210230Z 33003KT CAVOK M05/M08 Q1021 NOSIG
  • 210200Z VRB01KT CAVOK M06/M08 Q1021 NOSIG
  • 210130Z 32003KT 290V350 CAVOK M05/M08 Q1021 NOSIG
  • 210100Z 31004KT CAVOK M06/M08 Q1020 NOSIG

TAF TAF LKTB
Valide du 21 à 00h jusqu'au 22 à 06h UTC


202300Z 2100/2206 32002KT CAVOK
TEMPO 2103/2107 4000 BR NSC
BECMG 2122/2200 5000 BR
TEMPO 2200/2206 3000 BR SCT002
Pas de NOTAMs connus pour ce terrain.



MET'MAP, la Météo Aéronautique d'un coup d'oeil ! - Copyright ORBIFLY Décembre 2007 - Disclaimer

ORBIFLY MET'MAP TEAM :

Programmation & Développement : Alexandra Zaïnal
Conception & Développement : Baudouin d'Aumeries
Co-Programmation & Développement : Marc-Olivier Méhu
Soutien technique & logistique : Manuel Goepfert

Contact : metmap@orbifly.com




SOURCES & CREDITS :

   NOAA